Location: �perlecques
(50.8057°N, 2.1521°E)
Time: 19:24:59
(UTC+00:00)

Vanguard 1 Rocket - Pass Details

Date: 08 August 2021
Orbit: 650 x 4226 km, 34.3° (Epoch: 25 September)

Event Time Altitude Azimuth Distance (km) Brightness Sun altitude
Rises 05:35:09 0° 196° (SSW) 8,329 12.0 9.0°
Reaches altitude 10° 05:43:02 10° 184° (S) 7,422 11.9 10.2°
Maximum altitude 06:00:02 23° 143° (SE) 5,932 12.0 12.8°
Drops below altitude 10° 06:13:50 10° 100° (E) 6,038 13.4 15.0°
Sets 06:19:05 0° 87° (E) 6,533 13.6 15.8°
